YAOGAN 4

Last updated on Wed Apr 24 2024 00:02:24 GMT+0000 (Coordinated Universal Time)

1 33446U 08061A 24114.58727615 .00003897 00000+0 52667-3 0 9993 2 33446 97.8777 47.5223 0016720 102.6484 257.6599 14.79515445829480

Satellite not in orbit

YAOGAN 4